Waukegan National Airport (UGN)


Airport Diagram
Current Weather/Forecast (VFR Conditions)
METAR KUGN 271455Z 24011G20KT 10SM OVC050 M04/M12 A3002 RMK AO2 SLP189 T10391117 55000
TAF

All Charts
General
Chart Name Download
AIRPORT DIAGRAM
TAKEOFF MINIMUMS
ALTERNATE MINIMUMS

Departures
Chart Name Download
JORJO FIVE (RNAV)
JORJO FIVE (RNAV), CONT.1
MONKZ FIVE (RNAV)
MONKZ FIVE (RNAV), CONT.1

Arrivals
Chart Name Download
GOPAC TWO (RNAV)

Approaches
Chart Name Download
ILS OR LOC RWY 23
RNAV (GPS) RWY 05
RNAV (GPS) RWY 23